Time,TemperatureF,DewpointF,PressureIn,WindDirection,WindDirectionDegrees,WindSpeedMPH,WindSpeedGustMPH,Humidity,HourlyPrecipIn,Conditions,Clouds,dailyrainin,SoftwareType,DateUTC
2013-09-17 00:00:00,39.0,37.0,-100.00,East,94,1.0,2.0,91,-99.99,,,-99.99,,2013-09-17 06:00:00,
2013-09-17 00:52:00,39.0,37.0,-100.00,East,94,1.0,2.0,91,-99.99,,,-99.99,,2013-09-17 06:52:00,
2013-09-17 01:00:00,38.0,36.0,-100.00,East,95,1.0,2.0,92,-99.99,,,-99.99,,2013-09-17 07:00:00,
2013-09-17 01:52:00,38.0,36.0,-100.00,East,95,1.0,2.0,92,-99.99,,,-99.99,,2013-09-17 07:52:00,
2013-09-17 02:00:00,38.0,36.0,-100.00,ESE,102,1.0,3.0,93,-99.99,,,-99.99,,2013-09-17 08:00:00,
2013-09-17 02:52:00,38.0,36.0,-100.00,ESE,102,1.0,3.0,93,-99.99,,,-99.99,,2013-09-17 08:52:00,
2013-09-17 03:00:00,38.0,36.0,-100.00,East,85,1.0,4.0,93,-99.99,,,-99.99,,2013-09-17 09:00:00,
2013-09-17 03:53:00,38.0,36.0,-100.00,East,85,1.0,4.0,93,-99.99,,,-99.99,,2013-09-17 09:53:00,
2013-09-17 04:00:00,37.0,36.0,-100.00,East,94,1.0,2.0,94,-99.99,,,-99.99,,2013-09-17 10:00:00,
2013-09-17 04:53:00,37.0,36.0,-100.00,East,94,1.0,2.0,94,-99.99,,,-99.99,,2013-09-17 10:53:00,
2013-09-17 05:00:00,37.0,35.0,-100.00,East,90,0.0,2.0,94,-99.99,,,-99.99,,2013-09-17 11:00:00,
2013-09-17 05:52:00,37.0,35.0,-100.00,East,90,0.0,2.0,94,-99.99,,,-99.99,,2013-09-17 11:52:00,
2013-09-17 06:00:00,37.0,35.0,-100.00,East,88,0.0,1.0,95,-99.99,,,-99.99,,2013-09-17 12:00:00,
2013-09-17 06:52:00,37.0,35.0,-100.00,East,88,0.0,1.0,95,-99.99,,,-99.99,,2013-09-17 12:52:00,
2013-09-17 07:00:00,37.0,36.0,-100.00,East,88,0.0,2.0,95,-99.99,,,-99.99,,2013-09-17 13:00:00,
2013-09-17 07:52:00,37.0,36.0,-100.00,East,88,0.0,2.0,95,-99.99,,,-99.99,,2013-09-17 13:52:00,
2013-09-17 08:00:00,37.0,35.0,-100.00,ESE,107,0.0,3.0,95,-99.99,,,-99.99,,2013-09-17 14:00:00,
2013-09-17 08:52:00,37.0,35.0,-100.00,ESE,107,0.0,3.0,95,-99.99,,,-99.99,,2013-09-17 14:52:00,
2013-09-17 11:00:00,51.0,33.0,-100.00,WNW,287,4.0,12.0,49,-99.99,,,-99.99,,2013-09-17 17:00:00,
2013-09-17 11:53:00,51.0,33.0,-100.00,WNW,287,4.0,12.0,49,-99.99,,,-99.99,,2013-09-17 17:53:00,
2013-09-17 12:00:00,55.0,32.0,-100.00,WNW,284,3.0,10.0,41,-99.99,,,-99.99,,2013-09-17 18:00:00,
2013-09-17 12:52:00,55.0,32.0,-100.00,WNW,284,3.0,10.0,41,-99.99,,,-99.99,,2013-09-17 18:52:00,
2013-09-17 13:00:00,56.0,32.0,-100.00,NW,319,2.0,9.0,40,-99.99,,,-99.99,,2013-09-17 19:00:00,
2013-09-17 13:52:00,56.0,32.0,-100.00,NW,319,2.0,9.0,40,-99.99,,,-99.99,,2013-09-17 19:52:00,
2013-09-17 14:00:00,58.0,29.0,-100.00,West,277,3.0,10.0,33,-99.99,,,-99.99,,2013-09-17 20:00:00,
2013-09-17 14:52:00,58.0,29.0,-100.00,West,277,3.0,10.0,33,-99.99,,,-99.99,,2013-09-17 20:52:00,
2013-09-17 15:00:00,59.0,30.0,-100.00,SW,226,2.0,10.0,34,-99.99,,,-99.99,,2013-09-17 21:00:00,
2013-09-17 15:54:00,59.0,30.0,-100.00,SW,226,2.0,10.0,34,-99.99,,,-99.99,,2013-09-17 21:54:00,
2013-09-17 16:00:00,60.0,32.0,-100.00,WSW,243,4.0,12.0,34,-99.99,,,-99.99,,2013-09-17 22:00:00,
2013-09-17 16:53:00,60.0,32.0,-100.00,WSW,243,4.0,12.0,34,-99.99,,,-99.99,,2013-09-17 22:53:00,
2013-09-17 17:00:00,59.0,34.0,-100.00,WNW,285,3.0,10.0,39,-99.99,,,-99.99,,2013-09-17 23:00:00,
2013-09-17 17:52:00,59.0,34.0,-100.00,WNW,285,3.0,10.0,39,-99.99,,,-99.99,,2013-09-17 23:52:00,
2013-09-17 18:00:00,56.0,36.0,-100.00,West,261,1.0,8.0,46,-99.99,,,-99.99,,2013-09-18 00:00:00,
2013-09-17 18:52:00,56.0,36.0,-100.00,West,261,1.0,8.0,46,-99.99,,,-99.99,,2013-09-18 00:52:00,
2013-09-17 19:00:00,53.0,39.0,-100.00,NNW,330,2.0,11.0,58,-99.99,,,-99.99,,2013-09-18 01:00:00,
2013-09-17 19:53:00,53.0,39.0,-100.00,NNW,330,2.0,11.0,58,-99.99,,,-99.99,,2013-09-18 01:53:00,
2013-09-17 20:00:00,49.0,40.0,-100.00,North,10,2.0,10.0,72,-99.99,,,-99.99,,2013-09-18 02:00:00,
2013-09-17 20:52:00,49.0,40.0,-100.00,North,10,2.0,10.0,72,-99.99,,,-99.99,,2013-09-18 02:52:00,
2013-09-17 21:00:00,45.0,40.0,-100.00,East,80,1.0,2.0,83,-99.99,,,-99.99,,2013-09-18 03:00:00,
2013-09-17 21:55:00,45.0,40.0,-100.00,East,80,1.0,2.0,83,-99.99,,,-99.99,,2013-09-18 03:55:00,
2013-09-17 22:00:00,42.0,38.0,-100.00,East,87,0.0,2.0,87,-99.99,,,-99.99,,2013-09-18 04:00:00,
2013-09-17 22:54:00,42.0,38.0,-100.00,East,87,0.0,2.0,87,-99.99,,,-99.99,,2013-09-18 04:54:00,
2013-09-17 23:00:00,41.0,37.0,-100.00,East,84,1.0,4.0,84,-99.99,,,-99.99,,2013-09-18 05:00:00,
2013-09-17 23:53:00,41.0,37.0,-100.00,East,84,1.0,4.0,84,-99.99,,,-99.99,,2013-09-18 05:53:00,